Regional Weather Roundup
Issued by NWS Wakefield, VA

Home | Current Version | Previous Version | Graphics & Text | Print | Product List | Glossary On
Versions: 1 2 3 4 5 6 7 8 9 10 11 12 13 14 15 16 17 18 19 20 21 22 23 24 25 26 27 28
000
ASUS41 KAKQ 210515
RWRAKQ

REGIONAL WEATHER ROUNDUP
NATIONAL WEATHER SERVICE WAKEFIELD VA
100 AM EDT MON AUG 21 2017

Note: "fair" indicates few or no clouds below 12,000 feet with no
significant weather and/or obstructions to visibility. * = Denotes
station may not report precipitation (e.g., rain,snow,etc.),
thunder or fog.

VAZ042-051-052>054-056-210600-
NORTHERN VIRGINIA

CITY           SKY/WX    TMP DP  RH WIND       PRES   REMARKS
WASH NATIONAL  PTCLDY    76  72  87 S5        30.20R
DULLES         PTCLDY    72  68  87 CALM      30.20R
FORT BELVOIR   PTCLDY    71  69  94 CALM      30.18S
QUANTICO       MOCLDY    76  74  93 NW3       30.19S
FREDERICKSBRG* PTCLDY    73  70  89 CALM      30.18S
STAFFORD*      PTCLDY    69  69 100 CALM      30.23S
WARRENTON      CLOUDY    71  67  88 CALM      30.20R
CULPEPER*      CLOUDY    72  71  98 CALM      30.20S
MANASSAS*      CLOUDY    72  70  93 CALM      30.20R
LEESBURG*      PTCLDY    72  70  94 CALM      30.21S
WINCHESTER     PTCLDY    66  64  94 CALM      30.20R
FRONT ROYAL*   MOCLDY    70  68  94 CALM      30.19R
LURAY*         PTCLDY    72  70  94 CALM      30.20S
$$

VAZ048-049-060>072-079>083-210600-
CENTRAL AND SOUTH CENTRAL VIRGINIA

CITY           SKY/WX    TMP DP  RH WIND       PRES   REMARKS
RICHMOND       PTCLDY    73  70  90 CALM      30.19S
CHESTERFIELD*  FAIR      75  71  87 CALM      30.20R
PETERSBURG*    CLEAR     71  71 100 CALM      30.19S
HANOVER        PTCLDY    70  67  90 CALM      30.20S
TAPPAHANNOCK*  PTCLDY   N/A N/A N/A CALM      30.20S
QUINTON*       FAIR      71  71 100 S7        30.19S
CHARLOTTSVILLE CLEAR     74  71  91 N3        30.20S
GORDONSVILLE*  CLOUDY    71  71  99 CALM      30.19S
ORANGE*        CLOUDY    70  68  94 CALM      30.20S
LOUISA*        PTCLDY    70  66  88 CALM      30.19S
BUMPASS*       FAIR      72  71  97 CALM      30.19S
FARMVILLE*     CLEAR     76  72  89 CALM      30.18R
CREWE*         FAIR      71  67  87 CALM      30.19S
FORT PICKETT*  FAIR     N/A N/A N/A E3        30.19S
CHASE CITY*    FAIR      75  75  99 CALM      30.19R
CLARKSVILLE*   FAIR      75  73  94 CALM      30.18S
SOUTH HILL*    CLEAR     74  74 100 CALM      30.24S
LAWRENCEVILLE* FAIR      74  73  95 CALM      30.18S
EMPORIA*         N/A     73  72  94 CALM      30.20S
$$

VAZ088>098-210600-
SOUTHEAST VIRGINIA

CITY           SKY/WX    TMP DP  RH WIND       PRES   REMARKS
NORFOLK        CLEAR     78  75  90 CALM      30.18S
VIRGINIA BEACH CLEAR     74  71  91 CALM      30.18R
NORFOLK NAVAL  CLEAR     76  72  87 CALM      30.20R
WEST POINT*    PTCLDY    72  71  94 CALM      30.20S
SALUDA*        FAIR      72  72 100 CALM      30.19S
NEWPORT NEWS   CLEAR     73  71  93 CALM      30.19R
LANGLEY AFB    CLEAR     75  74  97 SE3       30.18S
FORT EUSTIS    CLEAR     75  72  89 CALM      30.16S
WILLIAMSBURG*  CLEAR     75  75 100 CALM      30.20R
HR EXEC AP*    FAIR      70  66  88 CALM      30.17R
FRANKLIN*      CLEAR     74  72  93 CALM      30.19S
US460-WAKEFLD  CLEAR     73  73 100 CALM      30.19S FOG
$$

VAZ020-022-025-037-045-210600-
WEST CENTRAL AND SOUTHWEST VIRGINIA

CITY           SKY/WX    TMP DP  RH WIND       PRES   REMARKS
STAUNTON*      PTCLDY    69  66  92 CALM      30.24R
WAYNESBORO*    CLEAR     73  68  84 S6        30.24R
HOT SPRINGS VA CLEAR     70  59  68 CALM      30.35F
LYNCHBURG      PTCLDY    71  68  90 CALM      30.21S
DANVILLE       CLEAR     72  72 100 CALM      30.19R
SOUTH BOSTON*  FAIR      73  71  95 CALM      30.18R
MARTINSVILLE   CLOUDY    70  69  96 CALM      30.22S
ROANOKE        CLEAR     74  67  78 CALM      30.23S
BLACKSBURG     CLEAR     68  67  94 CALM      30.29S
DUBLIN*        PTCLDY    69  67  95 CALM      30.27S
MARION*        CLOUDY    71  56  59 CALM      30.30R
HILLSVILLE*    CLEAR     70  63  77 CALM      30.28S
RICHLANDS*     FAIR      74  57  56 CALM      30.28R
WISE*          PTCLDY    70  63  78 CALM      30.28S
ABINGDON*      MOCLDY    72  68  89 CALM      30.25R
$$

MDZ021>025-VAZ099-100-210600-
SOUTHERN MARYLAND AND THE DELMARVA PENINSULA

CITY           SKY/WX    TMP DP  RH WIND       PRES   REMARKS
PATUXENT RIVER CLEAR     71  68  90 S3        30.19S
BAY BRIDGE APT CLEAR     73  68  83 CALM      30.19S
LEONARDTOWN    PTCLDY    70  66  88 CALM      30.21S
DOVER          CLEAR     69  69 100 CALM      30.18R
GEORGETOWN     CLEAR     68  65  90 CALM      30.21R
EASTON         CLEAR     70  67  90 CALM      30.24S
CAMBRIDGE      CLEAR     66  66 100 CALM      30.19S
SALISBURY      CLEAR     68  68 100 CALM      30.20S
OCEAN CITY     CLEAR     67  67 100 CALM      30.20S FOG
WALLOPS ISLAND CLEAR     72  72 100 W3        30.20S
ACCOMACK*      PTCLDY    69  69  99 CALM      30.20R FOG
$$

NCZ012>017-030>032-210600-
NORTH CENTRAL AND EASTERN NORTH CAROLINA

CITY           SKY/WX    TMP DP  RH WIND       PRES   REMARKS
ROANOKE RAPIDS FOG       72  72 100 CALM      30.18S VSB 1
RALEIGH        PTCLDY    79  71  76 S5        30.19R
ELIZABETH CITY CLEAR     77  76  96 CALM      30.18S
AHOSKIE*         N/A     74  73  99 CALM      30.19R
EDENTON*       CLEAR     78  75  92 CALM      30.19R
CURRITUCK*     CLEAR     74  73  95 CALM      30.19R
KILL DEVIL HLS CLEAR     76  76  98 CALM      30.17S
MANTEO         CLEAR     75  74  96 CALM      30.18S
CAPE HATTERAS  PTCLDY    78  77  96 NE3       30.17R
TARBORO*       NOT AVBL
GOLDSBORO      CLEAR     78  73  85 SW1       30.18R
WASHINGTON     CLOUDY    74  73  96 CALM      30.18R
GREENVILLE     CLOUDY    73  73 100 CALM      30.19R
NEW BERN       CLOUDY    75  75 100 CALM      30.18S
WILMINGTON     CLOUDY    77  75  93 CALM      30.15S
$$

VAZ048-210600-
ELSEWHERE

CITY           SKY/WX    TMP DP  RH WIND       PRES   REMARKS
HARRISBURG PA  PTCLDY    69  66  90 NE3       30.18S
BALTIMORE      PTCLDY    68  67  96 CALM      30.19R
ANNAPOLIS      CLEAR     74  74 100 CALM      30.18S
ANDREWS AFB    CLEAR     70  66  87 CALM      30.19R
PHILADELPHIA   PTCLDY    73  67  81 SW5       30.19R
HENDERSON NC   CLEAR     74  69  83 S6        30.19S
GREENSBORO     PTCLDY    78  69  73 S8        30.18R
ROCKY MOUNT    CLOUDY    73  73 100 CALM      30.18R FOG
$$

VAZ100-210600-
MARINE

STATION/POSITION TIME  TEMP    WIND        PRES    WAVE   SWELL
                       AIR SEA DIR/SP/G            HT/PER HT/PER
                 (UTC) (F)     (DEG/KT/KT) (MB)    (FT/S) (FT/S)
BRANDYWINE LGT   0436   76     230/  9/ 10 1022.9R
CAPE MAY NJ      0448   75 78  240/  6/  8 1022.0R
LEWES DE         0442   72 80  220/  4/  6 1022.3R
15NM E FENWICK I 0350   78 78  210/  6/  8 1022.9    2/ 9   2/ 9
OCEAN-CITY-INLET 0442   76 78  250/  4/  5 1022.9S
WACHAPREAGUE VA  0442   73 84  350/  1/  2 1022.5R
THOMAS POINT MD  0500   79 80  140/  7/  7   N/A
GOOSES REEF MD   0500   81 80  180/  6/  6 1022.9    0
COVE POINT MD    0442   78     190/  4/  4 1022.9S
SOLOMONS ISLAND  0442   77 83  160/  2/  3   N/A
BISHOPS HEAD MD  0442   80 83  130/  5/  6 1022.6R
PINEY POINT MD   0442          180/  7/  9   N/A
POTOMAC MD       0500   79 83  220/  6/  8 1021.7
CAMBRIDGE MD     0442   73 83              1023.2S
LEWISETTA VA     0442   77 84  210/  5/  5 1022.3S
RAPPAHANNOCK LGT 0442          160/  3/  4 1023.0R
STINGRAY PT      0500   80 82  220/  2/  4 1022.6    0
YORK RVR RNG VA  0442   80     150/  6/  7 1022.5S
YORKTOWN VA      0442   78 83  160/  4/  4 1021.9R
JAMESTOWN VA     0500      85  150/  8/ 10   N/A     0
DOMINION TERM VA 0442   79     130/  6/  7 1022.2R
KIPTOPEKE VA     0442      81  130/  3/  3   N/A
CHES BAY BRIDGE  0442   79 79  170/  3/  4 1022.0R
CAPE HENRY VA    0442   77     160/  1/  2   N/A
WILLOUBY STN VA  0442   79     140/  4/  4 1022.2R
S CRANEY ISL VA  0442   80     130/  4/  5 1021.8S
CAPE HENRY BUOY  0500      81                N/A     2/ 9
1ST LANDING BUOY 0500   78 79              1022.2    1
64NM E OF VA BCH 0450   78 79   90/  4/  6 1022.6R   2/ 8   2/ 8
DUCK PIER NC     0442   79 79  120/  6/  8 1021.5S
44100 DUCK FRF   0435      81                N/A     2/ 8
44056 DUCK FRF   0500      79                N/A     2/ 8
OREGON INLET NC  0442   77 80   50/  3/  4 1021.8R
HATTERAS NC      0442   79 79   50/  3/  4 1021.5R
DIAMOND SHLS NC  0450   83 85   CALM  /  2 1021.4R   2/ 8   2/ 8
CAPE LOOKOUT NC  0500   81      60/  4/  4 1020.9R
$$




USA.gov is the U.S. government's official web portal to all federal, state and local government web resources and services.